DW1347 Weather Reports


time (UTC)temp
C
wind
direction
speed
KPH
gust
KPH
rain 1hr
cm
rain 24hr
cm
rain mn
cm
humidity
%
barometer
mb
20220812185114 26 263 4.8 8.0 0.00 0.00 0.00 41 1035.0
20220812184613 26 267 4.8 8.0 0.00 0.00 0.00 41 1035.0
20220812184112 25 11 4.8 4.8 0.00 0.00 0.00 42 1035.0
20220812183611 26 121 8.0 9.7 0.00 0.00 0.00 41 1035.1
20220812183110 25 57 1.6 1.6 0.00 0.00 0.00 41 1034.7
20220812182609 26 21 3.2 4.8 0.00 0.00 0.00 41 1034.8
20220812182109 25 229 1.6 3.2 0.00 0.00 0.00 41 1035.1
20220812181607 24 193 3.2 4.8 0.00 0.00 0.00 42 1035.2
20220812181106 25 276 6.4 11.3 0.00 0.00 0.00 43 1035.0
20220812180605 25 14 3.2 3.2 0.00 0.00 0.00 41 1035.0
20220812180105 25 129 4.8 4.8 0.00 0.00 0.00 43 1035.0
20220812175604 25 1 4.8 4.8 0.00 0.00 0.00 42 1035.2
20220812175104 23 2 4.8 4.8 0.00 0.00 0.00 42 1035.2
20220812174602 24 271 1.6 3.2 0.00 0.00 0.00 42 1035.3
20220812174102 25 299 4.8 8.0 0.00 0.00 0.00 42 1035.6
20220812173601 23 227 0.0 0.0 0.00 0.00 0.00 44 1035.3
20220812173101 23 285 1.6 1.6 0.00 0.00 0.00 44 1035.8
20220812172600 23 222 4.8 4.8 0.00 0.00 0.00 45 1035.6
20220812172059 23 109 1.6 1.6 0.00 0.00 0.00 44 1035.7
20220812171559 22 164 3.2 4.8 0.00 0.00 0.00 47 1035.7
20220812171058 23 15 8.0 11.3 0.00 0.00 0.00 46 1035.8
20220812170557 23 177 3.2 3.2 0.00 0.00 0.00 45 1036.0
20220812170056 23 127 6.4 9.7 0.00 0.00 0.00 43 1036.0
20220812165555 22 286 1.6 1.6 0.00 0.00 0.00 47 1036.0
20220812165056 23 166 1.6 3.2 0.00 0.00 0.00 45 1036.0
20220812164555 21 68 3.2 8.0 0.00 0.00 0.00 46 1036.1
20220812164054 22 202 1.6 1.6 0.00 0.00 0.00 46 1036.3
20220812163554 21 220 0.0 1.6 0.00 0.00 0.00 49 1036.1
20220812163053 21 32 4.8 4.8 0.00 0.00 0.00 50 1036.1
20220812162553 21 14 4.8 4.8 0.00 0.00 0.00 50 1036.1
20220812162053 21 235 1.6 1.6 0.00 0.00 0.00 50 1036.1
20220812161552 21 305 4.8 4.8 0.00 0.00 0.00 50 1036.5
20220812161050 21 57 1.6 3.2 0.00 0.00 0.00 50 1036.3
20220812160549 21 98 3.2 3.2 0.00 0.00 0.00 50 1036.2
20220812160048 21 108 3.2 3.2 0.00 0.00 0.00 51 1036.7
20220812155547 20 309 4.8 4.8 0.00 0.00 0.00 52 1036.5
20220812155047 20 214 1.6 3.2 0.00 0.00 0.00 53 1036.5
20220812154546 20 325 1.6 4.8 0.00 0.00 0.00 52 1036.3
20220812154045 20 3 8.0 9.7 0.00 0.00 0.00 54 1036.2
20220812153545 20 10 8.0 9.7 0.00 0.00 0.00 53 1036.3
20220812153044 20 7 8.0 9.7 0.00 0.00 0.00 53 1036.6
20220812152544 20 19 4.8 8.0 0.00 0.00 0.00 54 1036.2
20220812152045 20 310 4.8 4.8 0.00 0.00 0.00 54 1036.2
20220812151544 20 204 1.6 3.2 0.00 0.00 0.00 52 1036.1
20220812151043 20 144 4.8 4.8 0.00 0.00 0.00 53 1036.2
20220812150543 19 14 3.2 3.2 0.00 0.00 0.00 55 1036.2
20220812150041 18 307 6.4 8.0 0.00 0.00 0.00 55 1036.3
20220812145540 18 27 3.2 4.8 0.00 0.00 0.00 52 1036.2
20220812145039 18 311 1.6 1.6 0.00 0.00 0.00 52 1036.2
20220812144540 18 260 1.6 3.2 0.00 0.00 0.00 52 1036.1
20220812144039 18 324 3.2 3.2 0.00 0.00 0.00 51 1036.3
20220812143539 18 310 1.6 1.6 0.00 0.00 0.00 55 1036.3
20220812143039 17 239 0.0 0.0 0.00 0.00 0.00 57 1036.2
20220812142538 17 223 1.6 1.6 0.00 0.00 0.00 59 1036.1
20220812142037 17 242 0.0 0.0 0.00 0.00 0.00 59 1036.1
20220812141538 16 228 0.0 0.0 0.00 0.00 0.00 60 1035.8
20220812141036 16 232 0.0 0.0 0.00 0.00 0.00 63 1035.8
20220812140535 16 242 0.0 0.0 0.00 0.00 0.00 66 1036.0
20220812140034 16 233 0.0 0.0 0.00 0.00 0.00 67 1036.1
20220812135533 15 216 0.0 0.0 0.00 0.00 0.00 66 1036.0
20220812135032 15 233 0.0 0.0 0.00 0.00 0.00 65 1036.0
20220812134531 16 241 0.0 0.0 0.00 0.00 0.00 63 1035.8
20220812134030 15 233 0.0 0.0 0.00 0.00 0.00 65 1035.8
20220812133529 15 233 0.0 0.0 0.00 0.00 0.00 62 1035.8
20220812133027 15 228 0.0 0.0 0.00 0.00 0.00 63 1035.8
20220812132528 13 230 0.0 0.0 0.00 0.00 0.00 67 1035.6
20220812132027 13 236 0.0 0.0 0.00 0.00 0.00 68 1035.7
20220812131525 13 189 1.6 1.6 0.00 0.00 0.00 68 1035.6
20220812131025 13 232 0.0 1.6 0.00 0.00 0.00 69 1035.5
20220812130523 12 226 0.0 0.0 0.00 0.00 0.00 69 1035.6
20220812130022 11 210 1.6 1.6 0.00 0.00 0.00 72 1035.3
20220812125521 11 188 3.2 3.2 0.00 0.00 0.00 74 1035.2
20220812125020 11 240 1.6 3.2 0.00 0.00 0.00 71 1035.5
20220812124519 12 260 1.6 1.6 0.00 0.00 0.00 71 1035.2
20220812124019 11 211 1.6 1.6 0.00 0.00 0.00 70 1035.1
20220812123518 11 232 0.0 0.0 0.00 0.00 0.00 70 1034.8
20220812123018 11 227 0.0 0.0 0.00 0.00 0.00 69 1035.1
20220812122517 11 221 0.0 0.0 0.00 0.00 0.00 71 1035.0
20220812122017 11 222 0.0 0.0 0.00 0.00 0.00 72 1034.8
20220812121516 11 236 0.0 0.0 0.00 0.00 0.00 71 1034.8
20220812121016 11 230 0.0 0.0 0.00 0.00 0.00 71 1035.0
20220812120514 11 240 0.0 0.0 0.00 0.00 0.00 71 1034.8
20220812120014 12 251 0.0 0.0 0.00 0.00 0.00 69 1034.8
20220812115513 11 225 0.0 0.0 0.00 0.00 0.00 71 1035.0
20220812115013 11 231 0.0 0.0 0.00 0.00 0.00 71 1035.0
20220812114512 11 228 0.0 0.0 0.00 0.00 0.00 71 1034.8
20220812114011 11 230 0.0 0.0 0.00 0.00 0.00 70 1034.5
20220812113510 11 174 3.2 3.2 0.00 0.00 0.00 70 1034.7
20220812113009 11 228 0.0 0.0 0.00 0.00 0.00 70 1034.8
20220812112508 11 221 0.0 0.0 0.00 0.00 0.00 71 1034.6
20220812112007 11 223 0.0 0.0 0.00 0.00 0.00 70 1034.7
20220812111506 11 211 1.6 1.6 0.00 0.00 0.00 71 1034.7
20220812111005 11 239 1.6 1.6 0.00 0.00 0.00 70 1034.7
20220812110503 11 182 3.2 3.2 0.00 0.00 0.00 71 1034.7
20220812110002 11 230 0.0 0.0 0.00 0.00 0.00 70 1034.6
20220812105501 11 222 0.0 0.0 0.00 0.00 0.00 70 1034.5
20220812105001 11 221 0.0 0.0 0.00 0.00 0.00 70 1034.5
20220812104500 12 232 0.0 1.6 0.00 0.00 0.00 68 1034.5
20220812104000 12 203 1.6 1.6 0.00 0.00 0.00 68 1034.2
20220812103501 11 237 0.0 0.0 0.00 0.00 0.00 69 1034.1
20220812103000 11 227 0.0 0.0 0.00 0.00 0.00 69 1034.3
20220812102458 11 227 0.0 0.0 0.00 0.00 0.00 70 1034.2
20220812101958 11 237 0.0 0.0 0.00 0.00 0.00 70 1034.3
20220812101456 12 232 0.0 0.0 0.00 0.00 0.00 68 1034.2
20220812100956 12 226 0.0 0.0 0.00 0.00 0.00 68 1034.1
20220812100456 12 234 0.0 0.0 0.00 0.00 0.00 68 1034.2
20220812095955 12 240 0.0 0.0 0.00 0.00 0.00 66 1034.2
20220812095454 13 236 0.0 0.0 0.00 0.00 0.00 65 1034.2
20220812094954 13 239 0.0 0.0 0.00 0.00 0.00 64 1034.5
20220812094453 13 236 0.0 0.0 0.00 0.00 0.00 62 1034.3
20220812093953 13 236 1.6 1.6 0.00 0.00 0.00 65 1034.6
20220812093452 13 227 1.6 1.6 0.00 0.00 0.00 63 1034.5
20220812092951 12 233 0.0 0.0 0.00 0.00 0.00 65 1034.2
20220812092451 13 238 0.0 0.0 0.00 0.00 0.00 64 1034.6
20220812091951 13 225 0.0 0.0 0.00 0.00 0.00 63 1034.3
20220812091450 13 225 0.0 0.0 0.00 0.00 0.00 63 1034.5
20220812090949 13 234 0.0 0.0 0.00 0.00 0.00 64 1034.5
20220812090449 13 209 1.6 3.2 0.00 0.00 0.00 62 1034.5
20220812085949 13 226 0.0 0.0 0.00 0.00 0.00 64 1034.2
20220812085448 13 228 0.0 0.0 0.00 0.00 0.00 63 1034.2
20220812084948 13 203 1.6 1.6 0.00 0.00 0.00 62 1034.3
20220812084448 13 217 1.6 1.6 0.00 0.00 0.00 65 1034.1
20220812083947 13 237 0.0 0.0 0.00 0.00 0.00 64 1034.1
20220812083446 13 222 0.0 0.0 0.00 0.00 0.00 63 1033.9
20220812082946 13 226 0.0 0.0 0.00 0.00 0.00 65 1033.9
20220812082445 12 230 0.0 0.0 0.00 0.00 0.00 66 1033.9
20220812081944 12 213 0.0 1.6 0.00 0.00 0.00 67 1034.1
20220812081444 12 232 0.0 0.0 0.00 0.00 0.00 68 1034.2
20220812080944 13 205 1.6 1.6 0.00 0.00 0.00 66 1033.8
20220812080442 12 187 3.2 3.2 0.00 0.00 0.00 68 1034.1
20220812075941 12 205 1.6 1.6 0.00 0.00 0.00 67 1033.9
20220812075440 12 241 0.0 0.0 0.00 0.00 0.00 69 1033.7
20220812074940 12 242 0.0 0.0 0.00 0.00 0.00 68 1033.8
20220812074440 12 203 1.6 1.6 0.00 0.00 0.00 69 1033.9
20220812073939 12 210 1.6 1.6 0.00 0.00 0.00 68 1033.6
20220812073438 13 225 0.0 0.0 0.00 0.00 0.00 66 1034.1
20220812072936 13 235 0.0 0.0 0.00 0.00 0.00 66 1033.8
20220812072435 13 222 0.0 0.0 0.00 0.00 0.00 65 1033.3
20220812071931 13 217 1.6 1.6 0.00 0.00 0.00 64 1033.7
20220812071430 13 219 0.0 1.6 0.00 0.00 0.00 67 1033.3
20220812070928 13 195 3.2 3.2 0.00 0.00 0.00 68 1033.8
20220812070428 13 237 0.0 0.0 0.00 0.00 0.00 67 1033.7
20220812065928 13 237 0.0 0.0 0.00 0.00 0.00 66 1033.8
20220812065427 14 232 0.0 0.0 0.00 0.00 0.00 65 1033.4
20220812064926 13 231 0.0 0.0 0.00 0.00 0.00 63 1033.7
20220812064425 14 231 0.0 0.0 0.00 0.00 0.00 65 1033.7
20220812063924 14 218 0.0 1.6 0.00 0.00 0.00 63 1033.8
20220812063423 13 194 1.6 1.6 0.00 0.00 0.00 64 1033.9
20220812062922 14 236 0.0 0.0 0.00 0.00 0.00 62 1033.4
20220812062421 15 236 0.0 0.0 0.00 0.00 0.00 65 1033.7
20220812061921 14 219 1.6 1.6 0.00 0.00 0.00 64 1033.7
20220812061420 15 235 0.0 0.0 0.00 0.00 0.00 64 1033.7
20220812060919 14 223 0.0 1.6 0.00 0.00 0.00 66 1033.7
20220812060418 14 233 0.0 0.0 0.00 0.00 0.00 65 1033.6
20220812055918 15 180 3.2 3.2 0.00 0.00 0.00 64 1034.1
20220812055416 15 233 0.0 0.0 0.00 0.00 0.00 65 1034.2
20220812054917 15 223 1.6 1.6 0.00 0.00 0.00 61 1033.9
20220812054416 15 234 1.6 1.6 0.00 0.00 0.00 63 1034.2
20220812053915 15 219 0.0 1.6 0.00 0.00 0.00 60 1033.9
20220812053414 15 215 1.6 1.6 0.00 0.00 0.00 62 1033.9
20220812052914 14 167 3.2 3.2 0.00 0.00 0.00 62 1033.9
20220812052413 15 217 1.6 1.6 0.00 0.00 0.00 60 1033.9
20220812051912 14 232 0.0 0.0 0.00 0.00 0.00 64 1033.8
20220812051411 14 234 0.0 0.0 0.00 0.00 0.00 64 1033.7
20220812050911 15 247 1.6 3.2 0.00 0.00 0.00 65 1034.2
20220812050410 15 170 3.2 3.2 0.00 0.00 0.00 63 1034.2
20220812045909 15 219 1.6 1.6 0.00 0.00 0.00 63 1033.7
20220812045408 15 245 0.0 0.0 0.00 0.00 0.00 64 1033.8
20220812044908 15 231 0.0 0.0 0.00 0.00 0.00 62 1033.8
20220812044408 15 231 0.0 0.0 0.00 0.00 0.00 64 1034.1
20220812043906 15 233 0.0 0.0 0.00 0.00 0.00 62 1033.8
20220812043407 15 235 0.0 0.0 0.00 0.00 0.00 61 1034.1
20220812042906 15 224 0.0 1.6 0.00 0.00 0.00 62 1034.2
20220812042406 15 236 0.0 0.0 0.00 0.00 0.00 63 1034.2
20220812041904 15 234 0.0 0.0 0.00 0.00 0.00 63 1033.9
20220812041405 15 236 0.0 0.0 0.00 0.00 0.00 62 1034.1
20220812040904 15 244 0.0 0.0 0.00 0.00 0.00 60 1034.1
20220812040403 15 231 0.0 0.0 0.00 0.00 0.00 61 1033.9
20220812035902 15 227 0.0 0.0 0.00 0.00 0.00 60 1033.9
20220812035401 16 235 0.0 0.0 0.00 0.00 0.00 61 1033.8
20220812034900 16 236 0.0 0.0 0.00 0.00 0.00 61 1033.8
20220812034359 16 199 1.6 3.2 0.00 0.00 0.00 57 1033.9
20220812033859 16 221 0.0 0.0 0.00 0.00 0.00 61 1033.8
20220812033358 16 233 0.0 0.0 0.00 0.00 0.00 61 1034.1
20220812032856 16 230 0.0 0.0 0.00 0.00 0.00 59 1033.9
20220812032355 16 235 0.0 0.0 0.00 0.00 0.00 60 1033.7
20220812031854 16 235 0.0 0.0 0.00 0.00 0.00 60 1034.1
20220812031353 17 231 0.0 0.0 0.00 0.00 0.00 60 1033.8
20220812030853 17 233 0.0 0.0 0.00 0.00 0.00 60 1033.8
20220812030353 17 234 0.0 0.0 0.00 0.00 0.00 58 1033.7
20220812025851 18 228 0.0 0.0 0.00 0.00 0.00 58 1033.4
20220812025351 18 233 0.0 0.0 0.00 0.00 0.00 57 1033.7
20220812024850 18 227 1.6 1.6 0.00 0.00 0.00 54 1033.3
20220812024349 19 234 0.0 0.0 0.00 0.00 0.00 53 1033.4
20220812023849 20 235 0.0 0.0 0.00 0.00 0.00 51 1033.4
20220812023348 20 213 0.0 0.0 0.00 0.00 0.00 50 1033.6
20220812022848 21 180 1.6 1.6 0.00 0.00 0.00 45 1033.4
20220812022347 21 242 1.6 1.6 0.00 0.00 0.00 46 1033.3
20220812021846 21 236 1.6 1.6 0.00 0.00 0.00 47 1033.2
20220812021345 21 223 0.0 0.0 0.00 0.00 0.00 46 1033.2
20220812020845 20 212 1.6 1.6 0.00 0.00 0.00 47 1033.3
20220812020345 21 231 0.0 0.0 0.00 0.00 0.00 49 1032.9
20220812015844 21 237 0.0 0.0 0.00 0.00 0.00 49 1033.1
20220812015343 21 223 1.6 1.6 0.00 0.00 0.00 49 1033.2
20220812014843 21 223 1.6 1.6 0.00 0.00 0.00 48 1033.2
20220812014342 22 230 0.0 0.0 0.00 0.00 0.00 48 1032.9
20220812013841 22 156 1.6 1.6 0.00 0.00 0.00 48 1033.1
20220812013339 22 228 0.0 0.0 0.00 0.00 0.00 47 1033.1
20220812012839 22 228 0.0 0.0 0.00 0.00 0.00 46 1033.1
20220812012338 22 228 0.0 0.0 0.00 0.00 0.00 45 1032.8
20220812011837 23 226 0.0 0.0 0.00 0.00 0.00 44 1032.6
20220812011335 23 232 0.0 0.0 0.00 0.00 0.00 44 1032.8
20220812010834 23 235 0.0 0.0 0.00 0.00 0.00 45 1032.8
20220812010333 24 230 0.0 0.0 0.00 0.00 0.00 45 1032.4
20220812005831 25 232 0.0 0.0 0.00 0.00 0.00 40 1032.6
20220812005331 25 230 0.0 0.0 0.00 0.00 0.00 40 1032.6
20220812004830 25 222 1.6 1.6 0.00 0.00 0.00 39 1032.7
20220812004329 25 230 0.0 0.0 0.00 0.00 0.00 37 1032.4
20220812003827 25 236 0.0 0.0 0.00 0.00 0.00 36 1032.7
20220812003325 26 304 0.0 1.6 0.00 0.00 0.00 34 1032.7
20220812002824 26 248 1.6 1.6 0.00 0.00 0.00 34 1032.8
20220812002324 26 245 0.0 0.0 0.00 0.00 0.00 33 1032.8
20220812001823 26 249 1.6 1.6 0.00 0.00 0.00 32 1032.7
20220812001323 26 250 0.0 0.0 0.00 0.00 0.00 31 1032.7
20220812000822 27 237 0.0 0.0 0.00 0.00 0.00 31 1032.6
20220812000321 26 24 3.2 4.8 0.00 0.00 0.00 30 1032.7
20220811235821 26 238 0.0 0.0 0.00 0.00 0.00 31 1032.7
20220811235320 26 81 4.8 8.0 0.00 0.00 0.00 31 1032.9
20220811234818 26 230 1.6 1.6 0.00 0.00 0.00 33 1032.9
20220811234317 27 309 0.0 3.2 0.00 0.00 0.00 30 1032.9
20220811233816 27 261 0.0 0.0 0.00 0.00 0.00 31 1032.8
20220811233316 27 238 1.6 1.6 0.00 0.00 0.00 31 1032.9
20220811232815 28 134 6.4 8.0 0.00 0.00 0.00 30 1032.8
20220811232315 28 312 3.2 3.2 0.00 0.00 0.00 30 1033.2
20220811231814 28 131 3.2 3.2 0.00 0.00 0.00 30 1032.9
20220811231313 28 135 6.4 8.0 0.00 0.00 0.00 31 1033.1
20220811230813 28 0 6.4 9.7 0.00 0.00 0.00 28 1033.2
20220811230311 28 183 3.2 4.8 0.00 0.00 0.00 30 1033.3
20220811225811 28 31 6.4 8.0 0.00 0.00 0.00 33 1033.2
20220811225310 28 309 8.0 12.9 0.00 0.00 0.00 31 1033.1
20220811224810 28 271 3.2 3.2 0.00 0.00 0.00 32 1033.1
20220811224309 27 279 1.6 3.2 0.00 0.00 0.00 34 1033.3
20220811223808 28 338 6.4 9.7 0.00 0.00 0.00 34 1033.3
20220811223307 28 219 1.6 1.6 0.00 0.00 0.00 34 1033.2
20220811222807 27 27 4.8 8.0 0.00 0.00 0.00 34 1033.3
20220811222306 28 24 4.8 4.8 0.00 0.00 0.00 35 1033.3
20220811221805 27 350 3.2 4.8 0.00 0.00 0.00 36 1033.3
20220811221305 27 265 4.8 8.0 0.00 0.00 0.00 35 1033.3
20220811220805 28 59 4.8 4.8 0.00 0.00 0.00 34 1033.2
20220811220305 28 223 1.6 1.6 0.00 0.00 0.00 34 1033.3
20220811215805 27 238 0.0 0.0 0.00 0.00 0.00 35 1033.4
20220811215305 27 284 0.0 1.6 0.00 0.00 0.00 35 1033.6
20220811214804 27 232 0.0 0.0 0.00 0.00 0.00 36 1033.4
20220811214304 27 237 0.0 1.6 0.00 0.00 0.00 36 1033.6
20220811213803 27 121 8.0 9.7 0.00 0.00 0.00 34 1033.7
20220811213302 27 205 1.6 1.6 0.00 0.00 0.00 36 1033.7
20220811212801 27 207 1.6 3.2 0.00 0.00 0.00 36 1033.7
20220811212300 29 290 1.6 1.6 0.00 0.00 0.00 33 1033.7
20220811211759 28 193 3.2 3.2 0.00 0.00 0.00 33 1033.9
20220811211259 28 277 3.2 3.2 0.00 0.00 0.00 35 1033.6
20220811210759 28 171 4.8 4.8 0.00 0.00 0.00 34 1033.7
20220811210258 28 195 1.6 3.2 0.00 0.00 0.00 35 1033.9
20220811205756 28 324 8.0 9.7 0.00 0.00 0.00 34 1034.1
20220811205254 27 352 14.5 17.7 0.00 0.00 0.00 36 1034.2
20220811204754 28 93 1.6 3.2 0.00 0.00 0.00 33 1034.1
20220811204252 28 34 3.2 4.8 0.00 0.00 0.00 35 1034.1
20220811203750 27 170 8.0 11.3 0.00 0.00 0.00 35 1034.2
20220811203249 28 281 8.0 11.3 0.00 0.00 0.00 35 1034.1
20220811202748 28 311 1.6 3.2 0.00 0.00 0.00 35 1034.3
20220811202247 28 316 3.2 4.8 0.00 0.00 0.00 35 1034.2
20220811201746 28 88 4.8 8.0 0.00 0.00 0.00 35 1034.3
20220811201245 28 295 6.4 9.7 0.00 0.00 0.00 35 1034.3
20220811200745 28 355 8.0 9.7 0.00 0.00 0.00 34 1034.5
20220811200244 28 166 8.0 12.9 0.00 0.00 0.00 35 1034.3
20220811195743 28 234 1.6 1.6 0.00 0.00 0.00 34 1034.5
20220811195242 27 27 8.0 11.3 0.00 0.00 0.00 35 1034.3
20220811194742 28 235 3.2 3.2 0.00 0.00 0.00 35 1034.7
20220811194241 28 203 3.2 3.2 0.00 0.00 0.00 36 1034.7
20220811193740 27 244 1.6 1.6 0.00 0.00 0.00 35 1034.8
20220811193238 28 15 6.4 8.0 0.00 0.00 0.00 35 1034.8
20220811192738 27 140 4.8 4.8 0.00 0.00 0.00 36 1034.5
20220811192236 27 35 8.0 9.7 0.00 0.00 0.00 36 1034.5
20220811191736 27 9 3.2 8.0 0.00 0.00 0.00 36 1034.6
20220811191235 27 261 4.8 8.0 0.00 0.00 0.00 35 1034.6
20220811190733 27 220 1.6 1.6 0.00 0.00 0.00 35 1034.5
20220811190233 27 298 1.6 1.6 0.00 0.00 0.00 35 1034.7
20220811185732 27 39 4.8 8.0 0.00 0.00 0.00 35 1034.7
20220811185231 27 9 1.6 3.2 0.00 0.00 0.00 34 1034.7